Theta_e
299 300 299 300 300 300 300 301 301 302 303 303 303 302 302 303 303 303 303 303 303 303 305 307 306 307 307 308 310 310 310 308 304 307 312 310 313 311 311 311 313 311 315
299 299 299 299 299 298 298 299 299 299 301 301 301 302 302 302 302 302 302 302 302 302 303 305 305 304 306 308 307 308 309 310 307 304 309 309 308 312 311 310 309 309 311
298 298 298 298 298 298 298 298 298 298 298 299 299 298 299 300 300 301 301 301 301 302 302 302 303 304 304 305 306 306 308 308 308 306 305 310 309 309 309 310 308 309 309
298 297 297 297 298 299 299 299 298 297 296 297 297 297 298 299 300 300 300 301 301 302 302 302 302 302 304 304 304 305 305 306 307 304 304 306 308 309 309 306 305 308 306
297 296 297 297 298 297 296 296 297 297 296 296 296 297 297 298 298 299 300 300 300 301 302 303 303 305 309 306 304 304 305 304 305 305 302 303 304 305 304 304 304 306 307
295 295 297 296 295 294 295 296 296 296 297 296 296 296 296 296 299 301 301 299 300 300 300 301 303 307 305 306 307 307 306 303 304 302 302 300 303 304 304 302 302 300 300
294 294 294 294 293 294 294 294 294 294 295 295 295 296 295 296 300 301 302 300 300 300 298 298 301 301 305 303 304 306 306 308 308 305 302 301 303 306 305 301 302 300 302
293 293 293 293 293 294 294 293 294 294 294 294 293 295 295 296 299 300 301 299 300 299 300 301 301 301 302 303 301 301 302 304 305 306 306 306 306 308 307 305 302 303 304
291 293 293 294 293 293 292 293 294 293 294 293 295 294 294 295 299 300 299 298 298 298 300 300 301 301 304 304 301 300 300 301 304 307 311 312 311 310 309 303 302 300 300
292 293 294 294 292 293 293 293 294 294 293 293 293 294 295 295 298 299 299 298 296 297 299 300 303 302 302 302 300 300 298 298 301 301 305 309 310 308 309 305 302 299 300
293 294 293 292 293 293 293 294 293 293 293 293 293 294 294 295 295 298 300 297 297 297 297 297 299 302 302 302 303 299 298 301 303 301 304 307 307 305 304 305 304 302 300
292 292 292 292 293 293 293 293 294 293 293 293 292 293 294 294 296 297 299 299 298 296 296 297 298 301 301 302 302 302 304 304 302 302 302 302 303 301 302 303 304 304 306
292 291 291 292 292 293 293 293 292 292 291 292 292 292 293 293 293 296 298 299 299 296 297 298 299 300 301 302 303 304 305 302 301 301 301 300 300 301 302 302 303 307 307
291 291 291 291 292 293 293 293 292 292 291 291 291 291 293 293 293 294 294 295 298 298 298 298 299 300 302 302 302 303 303 303 302 301 301 301 302 301 302 303 302 303 301
291 291 291 291 292 291 292 292 293 294 294 292 293 294 292 292 294 296 296 296 297 298 297 298 298 298 298 299 300 302 303 303 301 301 301 300 301 301 301 302 301 301 299
290 290 291 291 291 291 291 291 296 298 298 298 298 297 296 298 299 299 299 299 299 300 296 295 295 293 295 297 298 298 300 301 300 300 300 300 299 299 298 301 302 300 299
290 291 291 291 290 290 290 290 292 295 300 302 300 299 301 300 300 301 301 301 301 300 296 295 294 294 294 295 295 295 295 297 298 298 298 298 298 298 300 300 299 300 300
292 293 290 290 290 290 290 291 295 294 293 294 299 300 301 300 299 298 297 296 293 295 293 293 293 294 294 294 294 294 295 296 297 298 298 299 300 299 298 298 299 301 304
291 290 291 291 290 291 292 295 295 294 294 294 295 297 299 299 299 299 298 294 293 293 293 293 294 294 294 294 295 295 296 297 297 296 296 297 297 298 298 300 302 304 304
291 292 292 290 290 290 293 294 294 294 294 294 294 294 295 296 294 294 295 294 293 293 293 293 293 294 294 294 294 295 295 293 293 293 294 295 296 298 299 303 304 304 303
290 290 293 290 290 290 293 293 294 293 293 293 293 295 296 293 292 293 293 294 293 293 293 293 293 293 294 294 294 294 292 292 292 293 294 295 297 297 301 305 305 304 303
290 289 290 289 290 290 292 293 293 292 292 292 292 293 294 292 292 293 293 293 294 294 294 294 293 293 294 294 294 293 292 292 292 293 294 295 297 300 305 305 305 304 303
290 289 289 289 289 291 291 291 292 291 290 291 291 290 291 291 292 293 293 294 294 294 295 294 293 292 293 294 294 294 292 292 293 294 294 294 297 303 305 305 304 304 302
290 289 289 288 289 288 289 289 290 291 290 290 289 289 290 292 292 293 293 294 295 294 294 293 292 292 292 293 294 294 294 294 294 294 294 295 297 301 304 304 304 304 303
290 289 288 288 288 288 288 289 289 289 290 290 290 290 291 292 292 292 293 294 294 294 293 292 291 292 292 292 292 293 293 292 293 294 295 295 297 299 302 303 304 304 304
289 289 288 289 288 288 288 288 289 289 289 290 291 291 292 292 292 292 293 294 294 293 292 291 291 291 291 291 292 292 293 293 294 294 295 295 295 297 300 302 303 303 303
Wind_Speed
17 17 18 18 19 19 17 18 18 19 18 19 18 18 18 18 16 18 19 16 16 15 15 14 14 12 9 8 8 8 9 7 11 7 8 10 5 10 7 9 7 10 10
17 18 18 18 18 18 18 20 20 20 19 19 19 19 19 17 16 18 19 16 16 16 16 16 14 10 13 11 8 11 8 10 7 11 9 7 4 9 8 9 7 8 9
17 18 18 18 18 19 20 20 20 19 19 19 19 19 19 18 18 17 17 17 16 16 15 14 14 13 13 10 10 9 9 8 7 8 7 5 5 4 5 6 8 8 8
18 18 19 20 19 18 20 20 19 17 18 19 20 19 19 18 17 18 16 17 16 15 17 15 15 15 16 10 10 10 10 8 8 4 6 7 7 6 5 6 7 7 7
18 19 20 19 20 19 19 19 18 19 18 19 20 20 19 18 14 16 17 15 17 19 16 15 14 16 17 13 8 8 9 9 6 7 5 8 7 7 9 4 6 7 8
19 20 19 19 18 19 19 18 20 20 20 19 21 19 18 14 26 30 23 14 16 17 13 14 17 17 14 17 20 20 16 11 9 7 7 9 12 9 8 8 7 5 8
18 20 19 18 19 18 20 20 20 19 20 19 19 18 19 18 28 29 30 17 16 15 11 14 19 10 15 13 15 20 22 24 24 11 9 11 13 11 11 11 10 7 8
20 21 19 18 19 19 20 20 20 17 18 16 15 19 18 15 27 27 27 17 16 17 17 17 11 12 13 8 9 11 11 9 11 13 13 13 12 12 11 10 11 10 5
18 19 19 19 20 20 20 21 17 17 14 14 14 17 16 15 24 23 21 14 15 15 15 16 15 12 18 15 10 11 10 9 14 22 20 22 19 16 11 2 5 7 7
18 19 20 19 20 21 20 19 16 14 14 12 15 16 20 17 22 23 20 9 13 11 13 14 26 16 17 17 13 12 11 10 10 13 13 15 20 16 20 9 7 8 7
19 20 19 20 21 20 19 17 16 14 15 15 14 14 15 16 13 21 22 13 9 10 10 11 11 15 18 23 24 12 13 12 16 14 11 7 9 10 9 9 9 9 9
19 20 20 20 17 16 19 17 15 13 14 15 13 13 10 13 17 18 22 24 18 12 11 8 9 15 18 18 16 21 23 22 11 10 7 8 7 8 9 10 12 9 5
19 20 20 20 18 17 17 16 13 11 11 11 10 10 10 9 9 21 24 25 25 16 10 14 21 22 22 20 25 24 22 10 10 9 8 8 8 8 10 11 12 6 4
20 21 18 17 20 17 13 12 12 10 9 10 10 10 10 9 9 9 9 9 17 16 17 14 17 19 21 17 15 15 11 9 9 7 7 8 8 8 8 6 6 6 5
19 18 18 14 16 16 14 13 11 12 11 10 10 10 10 11 12 18 16 10 8 10 11 8 8 8 8 9 10 11 10 8 9 8 9 7 7 7 9 10 7 6 6
17 15 14 13 13 12 12 13 19 18 20 22 23 16 12 24 36 34 29 26 24 24 9 9 7 8 12 11 8 8 6 12 9 9 7 8 7 7 7 5 6 6 9
17 16 13 14 12 12 12 11 11 14 21 19 10 13 12 23 29 32 11 25 29 24 7 1 2 5 6 6 7 7 7 6 6 6 5 6 8 10 8 6 6 7 8
17 25 13 12 11 11 11 10 8 8 9 9 15 17 22 24 26 27 28 23 16 15 9 8 8 7 8 8 8 7 6 5 5 4 5 3 3 4 5 8 8 9 7
14 12 13 11 10 13 10 7 6 6 7 8 8 14 16 25 27 27 24 12 12 11 10 10 9 9 9 8 7 7 6 6 5 4 2 2 4 6 7 7 9 12 11
13 24 19 10 10 10 9 8 7 8 9 9 10 10 9 12 12 13 12 12 12 11 11 11 11 10 9 8 7 6 6 5 3 1 3 4 4 5 6 7 8 9 8
10 12 21 10 10 9 8 8 7 7 8 9 9 13 21 10 10 11 11 11 11 11 11 11 10 9 8 8 7 7 6 4 2 1 1 2 3 5 5 7 8 9 9
10 11 11 9 9 9 8 8 7 8 8 8 8 12 20 10 9 9 10 10 10 10 8 9 8 8 8 7 7 6 5 4 4 4 2 1 4 4 2 7 9 9 9
10 11 11 9 9 12 9 8 8 8 9 9 8 8 8 8 8 9 10 10 9 9 9 9 8 8 8 8 8 7 6 7 5 4 3 2 3 3 7 8 9 9 9
10 11 10 9 9 9 9 9 8 11 9 8 8 8 8 8 9 10 9 8 8 10 9 9 10 13 11 10 8 8 8 7 6 6 6 4 6 7 5 7 8 11 9
8 10 10 9 8 8 8 8 8 8 8 8 7 8 8 8 8 9 8 8 9 9 12 10 10 12 15 17 16 15 15 16 13 10 5 7 9 9 6 7 9 8 8
8 8 8 8 8 8 7 7 7 7 7 7 7 8 8 8 8 7 6 9 8 10 11 9 13 16 16 13 15 18 20 19 15 15 8 8 8 8 7 8 10 7 8
Wind_Direction
311 309 308 306 305 304 302 301 299 297 293 286 286 281 273 267 268 271 260 253 249 254 254 250 247 247 246 253 264 246 214 228 255 260 246 273 281 192 208 186 205 191 191
311 310 307 305 304 303 301 300 300 297 296 295 292 287 278 274 272 269 263 256 257 254 248 251 248 246 253 238 244 263 250 218 222 254 257 253 241 257 197 172 204 210 194
311 307 303 304 304 300 297 296 298 297 298 297 294 290 286 281 276 270 271 268 258 265 257 256 253 245 243 233 233 238 249 245 207 237 256 258 267 261 201 204 184 229 198
306 304 304 304 304 309 313 309 305 296 291 287 284 284 284 281 278 273 260 279 276 257 254 254 254 248 241 239 251 252 254 251 219 197 237 258 253 265 235 206 189 203 203
307 309 307 309 310 309 305 296 290 296 290 286 282 279 281 277 272 259 259 251 256 266 275 251 236 248 258 250 259 261 258 256 217 205 211 247 245 233 225 202 198 196 206
316 307 312 309 299 298 293 294 300 292 285 279 282 278 277 274 272 273 268 254 266 251 259 285 256 234 242 250 257 255 258 272 275 194 204 236 242 230 224 194 212 189 201
310 315 304 301 297 300 299 294 295 286 286 276 274 281 274 267 270 267 263 252 251 248 226 257 248 244 227 228 242 246 242 243 248 249 219 223 246 230 218 187 208 208 214
313 308 303 297 300 301 297 299 291 294 285 283 280 268 273 269 270 265 260 259 254 254 254 253 253 255 265 246 249 250 246 250 260 240 239 224 224 244 239 211 206 204 229
303 302 303 303 305 303 301 295 292 289 283 277 271 275 273 273 274 266 258 256 256 250 245 255 260 246 254 263 266 262 257 248 265 271 269 230 231 240 238 269 197 177 201
305 310 308 308 303 300 298 296 292 287 283 279 273 282 275 271 269 271 265 256 250 249 246 235 249 244 254 259 259 254 243 243 246 256 263 229 228 222 229 223 214 202 198
306 307 310 304 300 299 298 296 290 288 281 278 277 273 273 269 267 256 253 247 244 247 241 236 239 239 241 244 240 239 242 241 238 240 246 234 218 197 206 215 228 203 202
320 309 307 304 302 301 298 293 288 285 281 281 274 275 268 270 266 262 265 258 249 239 246 256 264 259 253 243 238 244 244 239 243 237 227 222 200 191 195 208 214 217 199
313 309 307 306 305 299 300 300 296 282 272 274 284 278 267 259 254 261 259 251 248 246 244 251 256 256 249 237 239 242 242 238 226 232 213 202 195 198 193 202 198 201 144
310 309 310 309 308 307 302 297 291 284 272 270 267 267 268 257 247 242 244 257 263 248 243 243 240 238 242 246 245 244 238 228 217 212 215 191 186 188 187 179 179 179 187
311 310 313 310 308 310 305 300 297 290 275 270 265 269 275 271 260 256 247 233 232 229 233 241 236 242 249 242 241 235 220 223 226 201 185 167 174 189 187 188 179 174 190
315 316 315 314 315 310 311 309 304 308 305 291 286 284 283 277 269 255 247 249 240 234 228 230 235 252 232 218 225 229 204 200 178 165 157 160 168 188 198 180 149 180 206
321 319 321 319 317 316 317 317 328 333 355 24 307 296 355 37 43 51 53 232 232 225 234 232 157 103 109 123 127 130 119 113 109 119 139 170 191 206 171 154 177 198 203
324 325 321 320 320 315 316 315 335 0 11 24 32 46 42 50 58 61 62 62 65 72 83 90 79 79 80 82 82 89 101 111 129 161 166 143 122 142 172 190 190 193 186
333 324 328 325 324 325 323 346 8 13 17 27 29 31 33 51 54 56 58 62 68 72 73 73 73 73 71 70 68 62 62 62 63 71 90 155 186 195 195 194 185 188 138
332 332 336 335 337 338 349 0 10 23 31 36 37 32 28 36 44 47 53 55 57 58 57 57 54 54 56 56 54 50 58 59 73 149 185 197 199 199 194 190 152 141 138
331 331 336 340 348 345 353 4 26 32 35 42 41 42 43 49 54 49 51 53 55 54 50 49 50 50 47 47 44 49 41 36 16 352 211 206 183 184 228 154 140 123 123
338 334 338 345 349 352 6 17 25 30 34 36 38 35 36 36 43 45 53 59 61 57 52 53 48 41 41 39 43 39 23 20 14 4 355 128 160 183 165 124 120 122 126
344 342 345 348 357 2 9 20 22 29 30 30 37 38 36 33 36 49 56 54 54 51 51 47 47 46 40 40 39 28 17 17 352 352 7 53 106 138 121 129 127 126 132
349 347 350 355 2 6 9 12 17 35 33 35 38 35 32 35 44 50 53 53 53 57 53 53 52 49 40 39 37 36 26 7 8 11 19 54 82 90 91 112 118 120 130
356 354 351 355 1 3 4 14 20 26 30 37 40 34 38 44 45 53 51 47 56 55 55 48 44 41 40 36 36 37 26 21 26 19 31 61 78 84 91 105 108 110 117
353 360 357 356 4 5 7 11 19 25 32 37 37 38 38 46 49 53 54 57 56 58 60 53 53 47 35 33 28 28 26 23 26 31 40 56 71 76 88 98 105 111 107